{"data":{"norad_id":52669,"intl_designator":"2022-053P","name":"STARLINK-3972","alt_names":[],"object_type":"PAYLOAD","status":"ACTIVE","operator":null,"country":"US","launch_date":"2022-05-18","launch_site_code":"AFETR","launch_vehicle":null,"mission":null,"orbit_class":"UNKNOWN","rcs_meters":null,"size_class":null,"mass_kg":null,"dimensions":null,"purposes":["comms"],"wikipedia_slug":null,"has_3d_model":false,"image_url":null,"decayed_at":null,"tle_current":{"epoch":"2026-09-19T17:28:26.457600Z","epoch_age_seconds":133178,"freshness":"FRESH","line1":"1 52669U 22053P   26262.72808400  .00001719  00000+0  62017-4 0  9994","line2":"2 52669  53.1608 351.1487 0000603  67.4336 292.6730 15.34387121240493","mean_motion":15.34387121,"eccentricity":6.03e-5,"inclination_deg":53.1608,"raan_deg":351.1487,"arg_perigee_deg":67.4336,"mean_anomaly_deg":292.673,"bstar":6.2017e-5,"rev_number":24049,"period_min":93.848545799936,"perigee_km":462.32901460225,"apogee_km":463.15402455171,"semimajor_km":6840.878519577,"source":"CELESTRAK","updated_at":"2026-09-20T09:00:40.102729Z"}}}